This is the latest recevied weather packets stored in our database for station/object K7KAR-2. If no packets are shown the sender has not sent any weather packets the latest 10 day(s).
| Time | Temp. | Humidity | Pressure | Rain* | Wind** | Luminosity | Snow |
|---|---|---|---|---|---|---|---|
| 1777505670 | 12.78° C | 10% | 1020.5 hPa | 0 mm | - | 221 W/m² | - |
| 1777505368 | 12.78° C | 10% | 1020.9 hPa | 0 mm | - | 241 W/m² | - |
| 1777505065 | 12.78° C | 10% | 1020.5 hPa | 0 mm | - | 268 W/m² | - |
| 1777504762 | 13.33° C | 10% | 1020.5 hPa | 0 mm | - | 290 W/m² | - |
| 1777504459 | 12.78° C | 10% | 1020.5 hPa | 0 mm | - | 299 W/m² | - |
| 1777504155 | 13.33° C | 10% | 1020.6 hPa | 0 mm | - | 317 W/m² | - |
| 1777503850 | 12.78° C | 10% | 1020.7 hPa | 0 mm | - | 337 W/m² | - |
| 1777503546 | 13.33° C | 10% | 1020.7 hPa | 0 mm | - | 360 W/m² | - |
| 1777503243 | 12.78° C | 10% | 1020.8 hPa | 0 mm | - | 382 W/m² | - |
| 1777502940 | 12.78° C | 10% | 1020.3 hPa | 0 mm | - | 398 W/m² | - |
| 1777502637 | 12.78° C | 10% | 1020.5 hPa | 0 mm | - | 413 W/m² | - |
| 1777502334 | 13.33° C | 10% | 1020.7 hPa | 0 mm | - | 419 W/m² | - |
| 1777502030 | 13.33° C | 10% | 1020.6 hPa | 0 mm | - | 454 W/m² | - |
| 1777501727 | 12.78° C | 10% | 1020.3 hPa | 0 mm | - | 477 W/m² | - |
| 1777501425 | 13.33° C | 10% | 1020.6 hPa | 0 mm | - | 484 W/m² | - |
| 1777501122 | 12.78° C | 10% | 1020.6 hPa | 0 mm | - | 498 W/m² | - |
| 1777500820 | 12.78° C | 10% | 1020.7 hPa | 0 mm | - | 513 W/m² | - |
| 1777500518 | 13.33° C | 10% | 1020.7 hPa | 0 mm | - | 536 W/m² | - |
| 1777500213 | 12.78° C | 10% | 1020.8 hPa | 0 mm | - | 549 W/m² | - |
| 1777499910 | 12.78° C | 10% | 1020.6 hPa | 0 mm | - | 552 W/m² | - |
| 1777499607 | 13.33° C | 10% | 1020.8 hPa | 0 mm | - | 583 W/m² | - |
| 1777499304 | 12.78° C | 10% | 1020.9 hPa | 0 mm | - | 597 W/m² | - |
| 1777499002 | 12.78° C | 10% | 1021 hPa | 0 mm | - | 596 W/m² | - |
| 1777498697 | 12.78° C | 10% | 1020.9 hPa | 0 mm | - | 615 W/m² | - |
| 1777498394 | 12.78° C | 10% | 1020.8 hPa | 0 mm | - | 638 W/m² | - |
* Rain latest hour (hover to see other rain measurements)
** Current wind speed in m/s (hover to see current wind gust speed)